Location: Ceske Budejovice
(48.9830°N, 14.4670°E)
Time: 21:25:01
(UTC+02:00)

DX 1 - Pass Details

Date: 26 August 2019
Orbit: 619 x 631 km, 98.4° (Epoch: 19 October)

Event Time Altitude Azimuth Distance (km) Brightness Sun altitude
Exits shadow 04:56:24 - 182° (S) 2,897 ? -11.7°
Rises 04:56:26 0° 182° (S) 2,883 ? -11.7°
Reaches altitude 10° 04:58:42 10° 190° (S) 1,983 ? -11.4°
Maximum altitude 05:02:48 42° 261° (W) 899 ? -10.8°
Drops below altitude 10° 05:06:56 10° 333° (NNW) 2,004 ? -10.2°
Sets 05:09:15 0° 340° (NNW) 2,918 ? -9.9°
